Joliet, IL

7:11 PM CDT on May 22, 2018 (GMT -0500)
Joliet Regional

Weather History for KJOT - May, 2013

Change the Weather History Date:

Monday, May 13, 2013

  Actual Average (KARR) Record (KARR)
Temperature  
Mean Temperature 48 °F -  
Max Temperature 65 °F 68 °F 83 °F (2011)
Min Temperature 30 °F 46 °F 29 °F (2013)
Degree Days  
Heating Degree Days 18    
Moisture  
Dew Point 28 °F    
Average Humidity 50    
Maximum Humidity 95    
Minimum Humidity 17    
Precipitation  
Precipitation 0.00 in - - ()
Sea Level Pressure  
Sea Level Pressure 30.12 in    
Wind  
Wind Speed 2 mph (West)    
Max Wind Speed 8 mph    
Max Gust Speed 16 mph    
Visibility 10 miles    
Events      
Averages and records for this station are not official NWS values.
T = Trace of Precipitation, MM = Missing Value Source: NWS Daily Summary

Daily Weather History Graph

Daily Weather History Graph

Search for Another Location

Airport or City:

Astronomy

May. 13, 2013 Rise Set
Actual Time 5:35 AM CDT 8:03 PM CDT
Civil Twilight 5:03 AM CDT 8:34 PM CDT
Nautical Twilight 4:24 AM CDT 9:14 PM CDT
Astronomical Twilight 3:41 AM CDT 9:58 PM CDT
Moon 8:20 AM CDT (5/13) 11:12 PM CDT (5/13)
Length of Visible Light 15h 31m
Length of Day
14h 28m
Waxing Crescent, 12% of the Moon is Illuminated
May 13
Waxing Crescent
May 17
First Quarter
May 24
Full
May 31
Last Quarter
Jun 8
New

Hourly Weather History & Observations

Time (CDT) Temp. Windchill Dew Point Humidity Pressure Visibility Wind Dir Wind Speed Gust Speed Precip Events Conditions
12:15 AM 35.8 °F - 32.4 °F 87% 30.12 in 10.0 mi Calm Calm - N/A   Clear
12:35 AM 34.9 °F - 30.7 °F 85% 30.12 in 10.0 mi Calm Calm - N/A   Clear
12:55 AM 34.7 °F - 30.6 °F 85% 30.12 in 10.0 mi Calm Calm - N/A   Clear
1:15 AM 34.2 °F - 30.6 °F 87% 30.12 in 10.0 mi Calm Calm - N/A   Clear
1:35 AM 33.1 °F - 30.4 °F 90% 30.12 in 10.0 mi Calm Calm - N/A   Clear
1:55 AM 32.7 °F - 29.3 °F 87% 30.12 in 10.0 mi Calm Calm - N/A   Clear
2:15 AM 32.9 °F - 29.7 °F 88% 30.12 in 10.0 mi Calm Calm - N/A   Clear
2:35 AM 32.7 °F - 30.0 °F 90% 30.13 in 10.0 mi Calm Calm - N/A   Clear
2:55 AM 32.9 °F 28.5 °F 28.8 °F 85% 30.13 in 10.0 mi NNE 4.6 mph - N/A   Clear
3:15 AM 31.8 °F - 28.2 °F 87% 30.14 in 10.0 mi Calm Calm - N/A   Clear
3:35 AM 33.8 °F - 30.7 °F 89% 30.13 in 10.0 mi Calm Calm - N/A   Clear
3:55 AM 32.0 °F - 29.5 °F 90% 30.13 in 10.0 mi Calm Calm - N/A   Clear
4:15 AM 31.8 °F - 29.7 °F 92% 30.13 in 10.0 mi Calm Calm - N/A   Clear
4:35 AM 30.0 °F - 27.5 °F 90% 30.14 in 10.0 mi Calm Calm - N/A   Clear
4:55 AM 30.6 °F - 28.8 °F 93% 30.14 in 10.0 mi Calm Calm - N/A   Clear
5:15 AM 30.6 °F - 29.1 °F 94% 30.14 in 10.0 mi Calm Calm - N/A   Clear
5:35 AM 30.6 °F - 28.2 °F 91% 30.14 in 10.0 mi Calm Calm - N/A   Clear
5:55 AM 31.6 °F - 30.4 °F 95% 30.14 in 7.0 mi Calm Calm - N/A   Clear
6:15 AM 32.0 °F - 30.6 °F 94% 30.15 in 10.0 mi Calm Calm - N/A   Clear
6:35 AM 34.2 °F - 31.6 °F 90% 30.16 in 10.0 mi Calm Calm - N/A   Clear
6:55 AM 36.7 °F - 32.7 °F 86% 30.16 in 10.0 mi Calm Calm - N/A   Clear
7:15 AM 40.6 °F - 34.7 °F 79% 30.17 in 10.0 mi Calm Calm - N/A   Clear
7:35 AM 44.6 °F - 32.0 °F 61% 30.18 in 10.0 mi Calm Calm - N/A   Clear
7:55 AM 46.6 °F - 32.4 °F 58% 30.18 in 10.0 mi Calm Calm - N/A   Clear
8:15 AM 48.4 °F - 31.5 °F 52% 30.18 in 10.0 mi Calm Calm - N/A   Clear
8:35 AM 50.5 °F - 30.6 °F 46% 30.19 in 10.0 mi Calm Calm - N/A   Clear
8:55 AM 51.4 °F - 29.7 °F 43% 30.19 in 10.0 mi West 4.6 mph - N/A   Clear
9:15 AM 52.7 °F - 29.3 °F 41% 30.19 in 10.0 mi West 5.8 mph - N/A   Clear
9:35 AM 54.7 °F - 25.9 °F 33% 30.19 in 10.0 mi West 8.1 mph 16.1 mph N/A   Clear
9:55 AM 55.8 °F - 23.9 °F 29% 30.19 in 10.0 mi West 5.8 mph - N/A   Clear
10:15 AM 55.8 °F - 22.8 °F 28% 30.19 in 10.0 mi WNW 6.9 mph - N/A   Clear
10:35 AM 56.8 °F - 22.8 °F 27% 30.20 in 10.0 mi NNW 8.1 mph - N/A   Clear
10:55 AM 56.8 °F - 23.4 °F 27% 30.19 in 10.0 mi West 8.1 mph - N/A   Clear
11:15 AM 57.4 °F - 22.6 °F 26% 30.19 in 10.0 mi WNW 3.5 mph - N/A   Clear
11:35 AM 59.0 °F - 25.7 °F 28% 30.19 in 10.0 mi NW 6.9 mph - N/A   Clear
11:55 AM 59.0 °F - 25.3 °F 28% 30.18 in 10.0 mi WNW 4.6 mph - N/A   Clear
12:15 PM 59.2 °F - 24.3 °F 26% 30.17 in 10.0 mi West 4.6 mph - N/A   Clear
12:35 PM 59.9 °F - 22.3 °F 24% 30.16 in 10.0 mi North 4.6 mph 10.4 mph N/A   Clear
12:55 PM 61.3 °F - 23.0 °F 23% 30.16 in 10.0 mi NW 6.9 mph 16.1 mph N/A   Clear
1:15 PM 61.3 °F - 24.1 °F 24% 30.15 in 10.0 mi West 3.5 mph - N/A   Clear
1:35 PM 61.9 °F - 21.7 °F 21% 30.14 in 10.0 mi NW 6.9 mph - N/A   Clear
1:55 PM 62.2 °F - 20.8 °F 20% 30.14 in 10.0 mi WNW 8.1 mph - N/A   Clear
2:15 PM 62.4 °F - 22.3 °F 22% 30.13 in 10.0 mi NNW 8.1 mph - N/A   Clear
2:35 PM 63.9 °F - 25.3 °F 23% 30.12 in 10.0 mi WSW 8.1 mph - N/A   Clear
3:15 PM 64.6 °F - 22.5 °F 20% 30.11 in 10.0 mi WSW 4.6 mph - N/A   Clear
3:35 PM 64.2 °F - 21.7 °F 20% 30.10 in 10.0 mi Calm Calm - N/A   Clear
3:55 PM 64.8 °F - 20.7 °F 19% 30.09 in 10.0 mi West 8.1 mph - N/A   Clear
4:15 PM 65.3 °F - 22.5 °F 20% 30.08 in 10.0 mi Calm Calm - N/A   Clear
4:35 PM 64.6 °F - 17.8 °F 17% 30.08 in 10.0 mi Calm Calm - N/A   Clear
4:55 PM 65.3 °F - 20.1 °F 18% 30.07 in 10.0 mi Calm Calm - N/A   Clear
5:15 PM 65.5 °F - 22.1 °F 19% 30.07 in 10.0 mi SW 6.9 mph - N/A   Clear
5:35 PM 64.9 °F - 24.8 °F 22% 30.07 in 10.0 mi SSW 5.8 mph - N/A   Clear
5:55 PM 64.8 °F - 23.5 °F 21% 30.07 in 10.0 mi SW 5.8 mph - N/A   Clear
6:15 PM 65.7 °F - 23.7 °F 20% 30.06 in 10.0 mi WSW 4.6 mph - N/A   Clear
6:55 PM 64.4 °F - 24.8 °F 22% 30.06 in 10.0 mi SW 5.8 mph - N/A   Clear
7:15 PM 64.0 °F - 25.2 °F 23% 30.06 in 10.0 mi Calm Calm - N/A   Scattered Clouds
7:35 PM 61.9 °F - 28.6 °F 28% 30.05 in 10.0 mi Calm Calm - N/A   Scattered Clouds
7:55 PM 60.4 °F - 31.3 °F 33% 30.04 in 10.0 mi Calm Calm - N/A   Mostly Cloudy
8:15 PM 60.3 °F - 30.6 °F 33% 30.04 in 10.0 mi SSE 3.5 mph - N/A   Scattered Clouds
8:35 PM 60.8 °F - 30.9 °F 32% 30.04 in 10.0 mi Calm Calm - N/A   Scattered Clouds
8:55 PM 60.3 °F - 30.0 °F 32% 30.04 in 10.0 mi SSE 3.5 mph - N/A   Mostly Cloudy
9:15 PM 59.5 °F - 31.8 °F 35% 30.05 in 10.0 mi Calm Calm - N/A   Mostly Cloudy
9:35 PM 60.1 °F - 29.8 °F 32% 30.06 in 10.0 mi Calm Calm - N/A   Scattered Clouds
9:55 PM 58.3 °F - 38.1 °F 47% 30.06 in 10.0 mi Calm Calm - N/A   Scattered Clouds
10:15 PM 55.8 °F - 40.1 °F 56% 30.06 in 10.0 mi Calm Calm - N/A   Mostly Cloudy
10:35 PM 53.4 °F - 40.1 °F 61% 30.05 in 10.0 mi Calm Calm - N/A   Scattered Clouds
10:55 PM 53.6 °F - 40.8 °F 62% 30.04 in 10.0 mi Calm Calm - N/A   Clear
11:15 PM 57.2 °F - 36.9 °F 47% 30.03 in 10.0 mi South 3.5 mph - N/A   Clear
11:35 PM 57.2 °F - 36.9 °F 47% 30.03 in 10.0 mi South 3.5 mph - N/A   Clear
11:55 PM 57.7 °F - 36.1 °F 44% 30.02 in 10.0 mi South 4.6 mph - N/A   Clear